Weather History for KFHU - December, 2012

Change the Weather History Date:

Sunday, December 16, 2012

  Actual Average Record
Temperature  
Mean Temperature 42 °F -  
Max Temperature 50 °F 57 °F 69 °F (1983)
Min Temperature 35 °F 35 °F 25 °F (1984)
Degree Days  
Heating Degree Days 22    
Moisture  
Dew Point 34 °F    
Average Humidity 71    
Maximum Humidity 93    
Minimum Humidity 48    
Precipitation  
Precipitation 0.03 in - - ()
Sea Level Pressure  
Sea Level Pressure 30.07 in    
Wind  
Wind Speed 11 mph (West)    
Max Wind Speed 20 mph    
Max Gust Speed 26 mph    
Visibility 10 miles    
Events Rain    
Averages and records for this station are not official NWS values.
T = Trace of Precipitation, MM = Missing Value Source: NWS Daily Summary

Daily Weather History Graph

Daily Weather History Graph

Search for Another Location

Airport or City:

Trip Planner

Search our weather history database for the weather conditions in past years. The results will help you decide how hot, cold, wet, or windy it might be!

Date:

Astronomy

Dec. 16, 2012 Rise Set
Actual Time 7:14 AM MST 5:20 PM MST
Civil Twilight 6:47 AM MST 5:47 PM MST
Nautical Twilight 6:17 AM MST 6:17 PM MST
Astronomical Twilight 5:47 AM MST 6:47 PM MST
Moon 10:00 AM MST (12/16) 9:25 PM MST (12/16)
Length of Visible Light 10h 59m
Length of Day
10h 05m
Waxing Crescent, 16% of the Moon is Illuminated
Dec 16
Waxing Crescent
Dec 19
First Quarter
Dec 28
Full
Jan 4
Last Quarter
Jan 11
New

Hourly Weather History & Observations

Time (MST) Temp. Windchill Dew Point Humidity Pressure Visibility Wind Dir Wind Speed Gust Speed Precip Events Conditions
12:56 AM 45.0 °F 39.7 °F 30.9 °F 58% 29.99 in 10.0 mi WSW 10.4 mph - N/A   Clear
1:56 AM 45.0 °F 38.2 °F 30.9 °F 58% 29.99 in 10.0 mi WSW 15.0 mph - N/A   Overcast
2:56 AM 45.0 °F 40.1 °F 30.9 °F 58% 29.98 in 10.0 mi South 9.2 mph - N/A   Overcast
3:56 AM 43.0 °F 38.2 °F 33.1 °F 68% 29.99 in 10.0 mi West 8.1 mph - N/A   Partly Cloudy
4:56 AM - - - N/A% 29.98 in 10.0 mi WSW 4.6 mph - N/A   Scattered Clouds
5:47 AM 44.6 °F 38.4 °F 33.8 °F 66% 30.02 in 10.0 mi West 12.7 mph - N/A   Overcast
5:56 AM 44.1 °F 37.7 °F 33.1 °F 65% 29.98 in 10.0 mi West 12.7 mph - N/A   Overcast
6:56 AM 44.1 °F 38.6 °F 34.0 °F 68% 30.00 in 10.0 mi SSW 10.4 mph 17.3 mph N/A   Overcast
7:56 AM 44.1 °F 39.5 °F 36.0 °F 73% 30.02 in 10.0 mi SW 8.1 mph - 0.00 in Rain Light Rain
8:11 AM 42.8 °F 36.6 °F 35.6 °F 76% 30.06 in 10.0 mi West 11.5 mph - 0.00 in   Overcast
8:56 AM 43.0 °F 35.7 °F 37.0 °F 80% 30.05 in 10.0 mi West 15.0 mph - 0.00 in Rain Light Rain
9:22 AM 42.8 °F 35.4 °F 37.4 °F 81% 30.09 in 10.0 mi West 15.0 mph - 0.00 in   Overcast
9:35 AM 39.2 °F 31.6 °F 37.4 °F 93% 30.10 in 3.0 mi NW 12.7 mph - 0.01 in Rain Rain
9:56 AM 39.9 °F 34.5 °F 37.9 °F 93% 30.10 in 5.0 mi NW 8.1 mph - 0.02 in Rain Light Rain
10:41 AM 42.8 °F 38.0 °F 37.4 °F 81% 30.11 in 10.0 mi NW 8.1 mph - 0.01 in   Mostly Cloudy
10:51 AM 44.6 °F 39.2 °F 39.2 °F 81% 30.11 in 10.0 mi NW 10.4 mph - 0.01 in   Mostly Cloudy
10:56 AM 44.1 °F 37.7 °F 39.9 °F 85% 30.08 in 10.0 mi WNW 12.7 mph - 0.01 in   Mostly Cloudy
11:16 AM 46.4 °F 39.2 °F 37.4 °F 71% 30.11 in 10.0 mi West 18.4 mph 25.3 mph N/A   Scattered Clouds
11:56 AM 46.0 °F 38.5 °F 34.0 °F 63% 30.07 in 10.0 mi West 19.6 mph - N/A   Mostly Cloudy
12:56 PM 46.9 °F - 34.0 °F 61% 30.05 in 10.0 mi WNW 17.3 mph 24.2 mph 0.00 in   Mostly Cloudy
1:56 PM 50.0 °F - 33.1 °F 52% 30.03 in 10.0 mi West 17.3 mph 23.0 mph N/A   Mostly Cloudy
2:56 PM 50.0 °F - 32.0 °F 50% 30.02 in 10.0 mi West 19.6 mph 26.5 mph N/A   Mostly Cloudy
3:56 PM 48.9 °F - 30.0 °F 48% 30.04 in 10.0 mi WNW 16.1 mph 21.9 mph N/A   Partly Cloudy
4:56 PM 46.9 °F - 32.0 °F 56% 30.06 in 10.0 mi NW 10.4 mph - N/A   Clear
5:56 PM 42.1 °F 40.2 °F 33.1 °F 70% 30.10 in 10.0 mi West 3.5 mph - N/A   Clear
6:56 PM 39.9 °F 35.8 °F 32.0 °F 73% 30.11 in 10.0 mi WSW 5.8 mph - N/A   Clear
7:56 PM 37.9 °F 32.7 °F 32.0 °F 79% 30.14 in 10.0 mi SSE 6.9 mph - N/A   Clear
8:56 PM 39.0 °F 34.0 °F 32.0 °F 76% 30.14 in 10.0 mi South 6.9 mph - N/A   Clear
9:56 PM 37.9 °F 32.1 °F 30.9 °F 76% 30.16 in 10.0 mi South 8.1 mph - N/A   Clear
10:55 PM 35.6 °F 31.7 °F 30.2 °F 81% 30.17 in 10.0 mi WSW 4.6 mph - N/A   Clear
11:55 PM 35.6 °F - 30.2 °F 81% 30.17 in 10.0 mi Calm Calm - N/A   Clear